Location: Krasnoyarskiy Pitomnik
(51.1333°N, 71.6167°E)
Time: 15:52:05
(UTC+00:00)

Transit 4A - Pass Details

Date: 18 April 2024
Orbit: 871 x 971 km, 66.8° (Epoch: 19 May)

Event Time Altitude Azimuth Distance (km) Brightness Sun altitude
Rises 15:00:26 0° 320° (NW) 3,479 12.4 -7.4°
Reaches altitude 10° 15:03:15 10° 331° (NNW) 2,533 11.2 -7.8°
Maximum altitude 15:08:23 31° 32° (NNE) 1,490 9.0 -8.5°
Drops below altitude 10° 15:13:32 10° 94° (E) 2,530 9.6 -9.2°
Enters shadow 15:13:55 - 96° (E) 2,654 9.7 -9.2°
